This is the latest recevied weather packets stored in our database for station/object EA7RX-4. If no packets are shown the sender has not sent any weather packets the latest 10 day(s).
| Time | Temp. | Humidity | Pressure | Rain* | Wind** | Luminosity | Snow |
|---|---|---|---|---|---|---|---|
| 1787514003 | 27.22° C | 28% | 1013.7 hPa | 0 mm | - | 0 W/m² | - |
| 1787513403 | 27.78° C | 27% | 1013.1 hPa | 0 mm | - | 0 W/m² | - |
| 1787512803 | 27.78° C | 27% | 1013 hPa | 0 mm | - | 0 W/m² | - |
| 1787512203 | 28.33° C | 26% | 1013 hPa | 0 mm | - | 0 W/m² | - |
| 1787511603 | 28.33° C | 26% | 1013.1 hPa | 0 mm | - | 4 W/m² | - |
| 1787511003 | 28.89° C | 25% | 1012.9 hPa | 0 mm | - | 10 W/m² | - |
| 1787510403 | 29.44° C | 26% | 1013.1 hPa | 0 mm | - | 24 W/m² | - |
| 1787509803 | 29.44° C | 26% | 1012.8 hPa | 0 mm | - | 43 W/m² | - |
| 1787509203 | 29.44° C | 29% | 1013 hPa | 0 mm | - | 51 W/m² | - |
| 1787508603 | 29.44° C | 30% | 1012.9 hPa | 0 mm | - | 76 W/m² | - |
| 1787508003 | 29.44° C | 30% | 1012.9 hPa | 0 mm | - | 61 W/m² | - |
| 1787507403 | 29.44° C | 30% | 1013.1 hPa | 0 mm | - | 79 W/m² | - |
| 1787506803 | 30° C | 30% | 1013.3 hPa | 0 mm | - | 140 W/m² | - |
| 1787506203 | 29.44° C | 29% | 1013.7 hPa | 0 mm | - | 125 W/m² | - |
| 1787505603 | 30° C | 29% | 1013.6 hPa | 0 mm | - | 192 W/m² | - |
| 1787505003 | 29.44° C | 29% | 1013.6 hPa | 0 mm | - | 214 W/m² | - |
| 1787504403 | 29.44° C | 28% | 1013.4 hPa | 0 mm | - | 82 W/m² | - |
| 1787503803 | 30° C | 29% | 1013.8 hPa | 0 mm | - | 84 W/m² | - |
| 1787503203 | 30° C | 28% | 1013.8 hPa | 0 mm | - | 168 W/m² | - |
| 1787502603 | 30° C | 27% | 1014 hPa | 0 mm | - | 352 W/m² | - |
| 1787502003 | 30° C | 27% | 1013.8 hPa | 0 mm | - | 430 W/m² | - |
| 1787501403 | 30° C | 27% | 1014 hPa | 0 mm | - | 188 W/m² | - |
| 1787500803 | 30.56° C | 27% | 1013.8 hPa | 0 mm | - | 426 W/m² | - |
| 1787500203 | 30° C | 28% | 1013.9 hPa | 0 mm | - | 577 W/m² | - |
| 1787499603 | 30.56° C | 28% | 1014.1 hPa | 0 mm | - | 165 W/m² | - |
* Rain latest hour (hover to see other rain measurements)
** Current wind speed in m/s (hover to see current wind gust speed)